Regional Weather Roundup
Issued by NWS

Home | Current Version | Previous Version | Text Only | Print | Product List | Glossary On
Versions: 1 2 3 4 5 6 7 8 9 10 11 12 13 14 15 16 17 18 19 20 21 22 23 24 25 26 27 28 29 30 31 32 33 34 35 36 37 38 39 40 41 42 43 44 45 46 47 48 49 50
000
ASUS44 KEWX 091103
RWRTX
SOUTH TEXAS REGIONAL WEATHER ROUNDUP
NATIONAL WEATHER SERVICE AUSTIN/SAN ANTONIO TX
500 AM CST FRI DEC 09 2016

NOTE: "FAIR" INDICATED FEW OR NO CLOUDS BELOW 12,000 FEET WITH NO
SIGNIFICANT WEATHER AND/OR OBSTRUCTIONS TO VISIBILITY.

* - THESE STATIONS ARE NOT NWS OR FAA STATIONS...AND ARE NOT SUBJECT
    TO NWS AND FAA QUALITY CONTROL.

TXZ171-172-183>190-091200-
TEXAS HILL COUNTRY AND EDWARDS PLATEAU

CITY           SKY/WX    TMP DP  RH WIND       PRES   REMARKS
JUNCTION       CLOUDY    30  18  60 E6        30.56F WCI  24
*LLANO         CLOUDY   N/A N/A N/A CALM      30.64F
BURNET         CLOUDY    31  15  52 N6        30.61F WCI  25
*HORSESHOE BAY CLOUDY    32  21  63 N3        30.61F
*KERRVILLE     CLOUDY    31  19  59 N8        30.56F WCI  24
*FREDERICKSBRG CLOUDY    30  17  57 NE6       30.57S WCI  24
*ROCKSPRINGS   CLOUDY    30  21  69 NE7       30.54F WCI  23
*BOERNE STAGE  CLOUDY    32  18  55 N9        30.58S WCI  24
*CASTROVILLE   CLOUDY    36  19  48 NE10      30.61F WCI  29
HONDO          CLOUDY    38  20  48 NE9       30.59F WCI  31
*UVALDE        CLOUDY    37  25  61 CALM      30.60F
DEL RIO        CLOUDY    38  26  62 N7        30.59F WCI  33
LAUGHLIN AFB   CLOUDY    37  29  73 N7        30.58F WCI  32
CARRIZO SPRGS  CLOUDY    39  27  60 NE6       30.59S WCI  35
*EAGLE PASS    CLOUDY    39  27  60 CALM      30.59F
$$

TXZ173-191>194-202-209-217>225-228-091200-
CENTRAL AND SOUTH CENTRAL TEXAS

CITY           SKY/WX    TMP DP  RH WIND       PRES   REMARKS
GEORGETOWN     CLOUDY    30  18  59 N6        30.62F WCI  24
AUSTIN/BERGSTM CLOUDY    36  18  48 N15       30.61F WCI  27
AUSTIN/MABRY   CLOUDY    34  19  54 N9        30.63S WCI  27
*AUSTIN/EXEC   CLOUDY    32  21  64 N12       30.62F WCI  23
*LAGO VISTA    CLOUDY    31  20  64 N7        30.59S WCI  24
SAN MARCOS     CLOUDY    34  21  60 N12       30.62S WCI  25
NEW BRAUNFELS  CLOUDY    36  18  48 N12       30.59F WCI  28
RANDOLPH AFB   CLOUDY    35  18  49 N10       30.59F WCI  28
PT SAN ANTONIO CLOUDY    37  16  43 NE9       30.56F WCI  30
SAN ANTONIO    CLOUDY    35  16  45 N14G21    30.59F WCI  26
STINSON FIELD  CLOUDY    38  18  44 NE12      30.59F WCI  30
*PLEASANTON    CLOUDY    38  20  49 N10       30.61F WCI  30
*LA GRANGE     CLOUDY    37  21  51 N12G17    30.59S WCI  30
*GIDDINGS      CLOUDY    34  19  53 N8G16     30.64F WCI  28
*GONZALES      CLOUDY    37  22  52 N13       30.60S WCI  29
$$

TXZ163>164-176>182-195>201-210>213-226-227-235-091200-
SOUTHEAST TEXAS

CITY           SKY/WX    TMP DP  RH WIND       PRES   REMARKS
COLLEGE STN    CLOUDY    34  20  56 N12       30.61F WCI  25
*BRYAN         CLOUDY    31  22  68 N7        30.63F WCI  24
*CALDWELL      NOT AVBL
*CROCKETT        N/A     28  19  69 N3        30.64F
*BRENHAM       CLOUDY    37  21  52 N9        30.61S WCI  30
HUNTSVILLE     CLOUDY    33  21  61 VRB5      30.60S WCI  29
CONROE         CLOUDY    36  22  56 N9        30.59S WCI  29
HOUSTON BUSH   CLOUDY    38  25  59 N10       30.58R WCI  31
HOUSTON HOBBY  CLOUDY    40  26  57 N18       30.56S WCI  31
*HOUSTON SW AP CLOUDY    38  27  64 N12       30.57R WCI  31
PEARLAND       CLOUDY    41  26  55 N14       30.57R WCI  33
HOUSTON HOOKS  CLOUDY    38  22  52 N10G16    30.58R WCI  31
ELLINGTON FLD  MOCLDY    39 N/A N/A N13       30.56S WCI  32
SUGAR LAND     CLOUDY    38  25  59 N15G21    30.56S WCI  29
*HOUSTON EXEC    N/A     37  23  56 N13       30.59S WCI  29
*CLEVELAND MUN CLOUDY    37  27  67 N6        30.59S WCI  32
*WHARTON       CLOUDY    37  25  62 N13       30.58R WCI  29
*COLUMBUS      CLOUDY    37  20  50 N10G17    30.60S WCI  30
*EAGLE LAKE    CLOUDY    40  25  56 N13       30.58S WCI  32
$$

TXZ214>216-236>238-091200-
THE UPPER TEXAS COAST

CITY           SKY/WX    TMP DP  RH WIND       PRES   REMARKS
*ORANGE        CLOUDY    39  26  61 NE13      30.56R WCI  31
PORT ARTHUR    CLOUDY    40  30  67 N15       30.54R WCI  32
GALVESTON      CLOUDY    43  33  68 N23G30    30.54S WCI  34
ANGLETON       CLOUDY    41  30  65 N14       30.54S WCI  33
*BAY CITY      CLOUDY    40  32  74 N10       30.54S WCI  33
PALACIOS       CLOUDY    37  27  67 N15       30.56R WCI  28
$$

TXZ229>234-239>247-091200-
TEXAS COASTAL BEND AND RIO GRANDE PLAINS

CITY           SKY/WX    TMP DP  RH WIND       PRES   REMARKS
VICTORIA       CLOUDY    38  25  59 N12       30.58S WCI  30
*BEEVILLE      CLOUDY    38  27  63 N10       30.58S WCI  32
ROCKPORT         N/A    N/A N/A N/A MISG      30.57R
*PORT ARANSAS  CLOUDY    40  29  65 N18G24    30.56S WCI  31
*PORT LAVACA   CLOUDY    37  30  75 N15       30.57S WCI  28
*INGLESIDE     CLOUDY    40  29  63 N16       30.56S WCI  32
CORPUS CHRISTI CLOUDY    40  29  64 N16       30.56F WCI  31
CORPUS NAS     CLOUDY    40  29  64 N24       30.55F WCI  29
*ROBSTOWN      CLOUDY    40  29  65 N14       30.58S WCI  32
ALICE            N/A    N/A N/A N/A MISG      30.57S
KINGSVILLE NAS NOT AVBL
COTULLA        CLOUDY    42  23  46 NE13      30.60S WCI  35
*FAITH RANCH   CLOUDY    41  28  60 N6        30.59S WCI  37
LAREDO         CLOUDY    42  28  57 N9        30.59S WCI  37
$$

TXZ248>255-091200-
DEEP SOUTH TEXAS

CITY           SKY/WX    TMP DP  RH WIND       PRES   REMARKS
BROWNSVILLE    CLOUDY    41  36  82 NW16G25   30.48S WCI  33
PORT ISABEL    CLOUDY    41  37  86 NW24G31   30.48S WCI  31
*SOUTH PADRE     N/A     43  43 100 NW26G35   30.46S WCI  33
HARLINGEN      CLOUDY    41  35  79 N22       30.51S WCI  31
*HEBBRONVILLE  CLOUDY    39  26  59 N13       30.57S WCI  31
MCALLEN        CLOUDY    44  32  62 N13G24    30.55S WCI  38
*WESLACO       CLOUDY    42  32  70 N14       30.53S WCI  34
FALFURRIAS     CLOUDY    42  28  58 N7G17     30.57R WCI  37
EDINBURG       CLOUDY    43  32  64 N15       30.55S WCI  36
*ZAPATA        CLOUDY    42  29  59 N8        30.57S WCI  38
$$

TXZ213>215-236>238-242>244-246-247-251-254-255-091200-
CMAN STATIONS

STATION/POSITION TIME  TEMP    WIND        PRES    WAVE
                       AIR SEA DIR/SP/G            HT/PER
                 (UTC) (F)     (DEG/KT/KT) (MB)    (FT/S)
SABINE PASS      1030   41 57   20/ 17/ 22 1035.2
SEA RIM ST PARK  1000   41      20/ 17/ 21 1034.3
NORTH JETTY/GLS  1030   42 53   10/ 22/ 27   N/A
EAGLE POINT      1030   42 54   40/ 13/ 20 1034.3
MORGANS POINT    1030   40 57  360/  9/ 16 1034.9
PORT O`CONNOR    1030   41     360/ 21/ 25 1034.3
PORT ARANSAS     1000   41 61  360/ 19/ 24 1034.1
MALAQUITE BEACH  1030   42 60  350/ 19/ 23 1034.5
BAFFIN BAY       1030   41 55  340/ 17/ 20 1034.6
PORT ISABEL      1030   42 67  340/ 22/ 28 1030.6
$$

GMZ080-GMZ150>470-091200-
OFFSHORE BUOY REPORTS

STATION/POSITION TIME  TEMP    WIND        PRES    WAVE
                       AIR SEA DIR/SP/G            HT/PER
                 (UTC) (F)     (DEG/KT/KT) (MB)    (FT/S)
20 E GALVESTON   0950   46 65   10/ 23/ 27 1032.7    6/ 5
90 E PT ARANSAS  0950   55 76   20/ 25/ 31 1030.5   11/10
35 NE PT MANSFLD 0950   56 76   10/ 23/ 29 1030.3   10/ 9
200 E PT ISABEL  0950   67 77   40/ 29/ 35 1023.7   13/10
$$




USA.gov is the U.S. government's official web portal to all federal, state and local government web resources and services.